Regional Weather Roundup
Issued by NWS Sterling, VA

Home | Current Version | Previous Version | Text Only | Print | Product List | Glossary On
Versions: 1 2 3 4 5 6 7 8 9 10 11 12 13 14 15 16 17 18 19 20 21 22 23 24 25 26 27
000
ASUS41 KLWX 311310
RWRLWX

REGIONAL WEATHER ROUNDUP
NATIONAL WEATHER SERVICE BALTIMORE MD/WASHINGTON DC
900 AM EDT FRI OCT 31 2014

Note: "FAIR" indicates few or no clouds below 12,000 feet
with no significant weather and/or obstructions to visibility.
 TC=TEMPERATURE CELSIUS

 * =Non NWS site. Station does not report precipitation (e.g. rain,
    snow, etc.), thunder, or fog.

DCZ001-MDZ009-015-VAZ040>042-051-053>054-311400-
WASHINGTON METRO

CITY           SKY/WX    TMP DP  RH WIND       PRES   REMARKS
WASHINGTON NAT PTSUNNY   50  39  66 NE5       30.01S
DULLES         PTSUNNY   41  39  93 CALM      30.00S
ANDREWS AFB    MOSUNNY   43  37  80 NE6       30.00R
FT BELVOIR     MOSUNNY   39  38  95 CALM      30.02R
QUANTICO       PTSUNNY   41  37  86 NW7       30.02R
COLLEGE PARK*  CLOUDY    43  43 100 CALM      30.00S
LEESBURG*      CLOUDY    43  43 100 CALM      30.01S
GAITHERSBURG*  CLOUDY    46  39  76 CALM      30.03S

$$

MDZ006>007-011-014-311400-
BALTIMORE METRO

CITY           SKY/WX    TMP DP  RH WIND       PRES   REMARKS
BWI AIRPORT    PTSUNNY   49  38  65 E8        30.00S
MD SCIENCE CTR   N/A     49  36  61 MISG      30.01S
MARTIN STATE   CLOUDY    48  41  76 CALM      30.02S
ANNAPOLIS      CLOUDY    49  38  65 NE7       30.00R
FORT MEADE*    CLOUDY    43  41  93 CALM      30.02S

$$

MDZ012-015-019>023-311400-
MARYLAND EASTERN SHORE

CITY           SKY/WX    TMP DP  RH WIND       PRES   REMARKS
OCEAN CITY     CLOUDY    50  41  71 N7        29.98S
SALISBURY      CLOUDY    48  41  76 NE3       29.99S
BAY BRIDGE AP*   N/A     46  34  61 NE5       30.00S
CAMBRIDGE*     PTSUNNY   48  39  71 NE3       29.99S
EASTON*        CLOUDY    45  41  87 NE7       30.03

$$

MDZ017>025-311400-
SOUTHERN MARYLAND

CITY           SKY/WX    TMP DP  RH WIND       PRES   REMARKS
PATUXENT RIVER CLOUDY    50  40  68 NE7       29.99S
ST INIGOES     CLOUDY    50  41  71 NE3       29.98S
LEONARDTOWN*   CLOUDY    43  41  93 CALM      30.00R

$$

MDZ003>005-311400-
NORTH CENTRAL MARYLAND

CITY           SKY/WX    TMP DP  RH WIND       PRES   REMARKS
FREDERICK*     CLOUDY    48  43  81 CALM      30.03S
HAGERSTOWN APT CLOUDY    45  38  76 CALM      29.99S
WESTMINSTER*   CLOUDY    46  34  61 E3        29.99S

$$

MDZ501>502-311400-
WESTERN MARYLAND

CITY           SKY/WX    TMP DP  RH WIND       PRES   REMARKS
OAKLAND*       CLOUDY    37  32  81 CALM      29.93R
CUMBERLAND*    CLOUDY    43  36  75 CALM      30.02R

$$

VAZ025>031-311400-
SHENANDOAH VALLEY

CITY           SKY/WX    TMP DP  RH WIND       PRES   REMARKS
WINCHESTER*    CLOUDY    41  34  75 CALM      29.99R
FRONT ROYAL*   FAIR      37  34  87 S3        29.99R
LURAY*         CLOUDY    37  37 100 SW3       30.00R
NEW MARKET*    CLOUDY    36  34  92 CALM      29.98S
STAUNTON*      CLOUDY    36  33  89 CALM      30.00S
WAYNESBORO*    CLOUDY    36  33  90 CALM      29.97S

$$

WVZ021-048>050-054>055-311400-
EASTERN WEST VIRGINIA PANHANDLE

CITY           SKY/WX    TMP DP  RH WIND       PRES   REMARKS
MARTINSBURG    CLOUDY    43  36  76 S3        30.00R
PETERSBURG*    CLOUDY    39  33  79 CALM      30.00R

$$

VAZ036>039-050-311400-
CENTRAL FOOTHILLS

CITY           SKY/WX    TMP DP  RH WIND       PRES   REMARKS
CHARLOTTESVILL CLOUDY    41  37  86 CALM      29.99R
CULPEPER*      CLOUDY    39  37  93 CALM      30.01R
ORANGE*        CLOUDY    43  39  87 CALM      30.01R
GORDONSVILLE*  CLOUDY    40  38  91 CALM      29.99S
WARRENTON*     FAIR      34  34 100 CALM      29.99F FOG

$$

VAZ055>057-311400-
NORTH AND CENTRAL PIEDMONT

CITY           SKY/WX    TMP DP  RH WIND       PRES   REMARKS
FREDERICKSBRG* PTSUNNY   40  40 100 CALM      30.00R
STAFFORD*      MOSUNNY  N/A N/A N/A CALM      30.04R

$$

NCZ024-NYZ072-PAZ021-071-VAZ022-071-311400-
OTHER REGIONAL OBSERVATIONS

CITY           SKY/WX    TMP DP  RH WIND       PRES   REMARKS
NEW YORK CITY  CLOUDY    47  32  56 N3        30.05R
PHILADELPHIA   PTSUNNY   43  34  70 N7        30.02S
PITTSBURGH     CLOUDY    43  38  82 CALM      29.95S
ROANOKE        CLOUDY    39  35  86 CALM      30.01R
RICHMOND       CLOUDY    47  40  76 N5        29.99R
RALEIGH        MOSUNNY   46  38  73 NE8       29.96S

$$

ANZ530>537-311400-
MARINE OBSERVATIONS

STATION/POSITION TIME  TEMP    WIND        PRES
                       AIR SEA DIR/SP/G
                 (UTC) (F)     (DEG/KT/KT) (MB)
THOMAS PT LIGHT  1300   49 60   50/  7/  9 1017.2R
BALT KEY BRIDGE  1300   49      30/  5/  6 1015.8F
COVE POINT       1300   49      90/ 13/ 16 1015.2R
LEWISETTA        1300   54 60   70/ 12/ 15 1014.6R
SOLOMONS ISLAND  1300      62                N/A
PINEY POINT      1300           70/  6/  7   N/A

$$




USA.gov is the U.S. government's official web portal to all federal, state and local government web resources and services.